EN

Hourly Weather Sucre

Today, 24 July, Saturday

Time Temperature Precipitation Wind Pressure Humidity
00:00 +13°C° 0 mm 1 mps 540 mmHg 52%
01:00 +13°C° 0 mm 1 mps 540 mmHg 54%
02:00 +12°C° 0 mm 1 mps 540 mmHg 57%
03:00 +12°C° 0 mm 1 mps 539 mmHg 58%
04:00 +11°C° 0 mm 1 mps 539 mmHg 59%
05:00 +10°C° 0 mm 0 mps 539 mmHg 60%
06:00 +11°C° 0 mm 0 mps 540 mmHg 57%
07:00 +12°C° 0 mm 0 mps 540 mmHg 54%
08:00 +14°C° 0 mm 1 mps 541 mmHg 50%
09:00 +15°C° 0 mm 1 mps 542 mmHg 44%
10:00 +18°C° 0 mm 1 mps 543 mmHg 39%
11:00 +20°C° 0 mm 1 mps 544 mmHg 33%
12:00 +20°C° 0 mm 2 mps 543 mmHg 30%
13:00 +21°C° 0 mm 2 mps 543 mmHg 28%
14:00 +22°C° 0 mm 3 mps 543 mmHg 25%
15:00 +22°C° 0 mm 3 mps 543 mmHg 25%
16:00 +21°C° 0 mm 3 mps 542 mmHg 26%
17:00 +21°C° 0 mm 3 mps 542 mmHg 26%
18:00 +20°C° 0 mm 2 mps 542 mmHg 30%
19:00 +18°C° 0 mm 2 mps 541 mmHg 35%
20:00 +17°C° 0 mm 2 mps 541 mmHg 39%
21:00 +18°C° 0 mm 1 mps 541 mmHg 41%
22:00 +16°C° 0 mm 1 mps 541 mmHg 43%
23:00 +15°C° 0 mm 1 mps 541 mmHg 46%

Tomorrow, 25 July, Sunday

Time Temperature Precipitation Wind Pressure Humidity
00:00 +15°C° 0 mm 1 mps 541 mmHg 49%
01:00 +14°C° 0 mm 1 mps 540 mmHg 51%
02:00 +12°C° 0 mm 0 mps 540 mmHg 54%
03:00 +12°C° 0 mm 0 mps 539 mmHg 55%
04:00 +11°C° 0 mm 0 mps 539 mmHg 55%
05:00 +12°C° 0 mm 1 mps 539 mmHg 55%
06:00 +12°C° 0 mm 1 mps 540 mmHg 51%
07:00 +13°C° 0 mm 1 mps 541 mmHg 46%
08:00 +14°C° 0 mm 1 mps 542 mmHg 42%
09:00 +16°C° 0 mm 1 mps 542 mmHg 36%
10:00 +18°C° 0 mm 1 mps 543 mmHg 31%
11:00 +20°C° 0 mm 1 mps 543 mmHg 25%
12:00 +21°C° 0 mm 1 mps 543 mmHg 24%
13:00 +20°C° 0 mm 2 mps 543 mmHg 22%
14:00 +21°C° 0 mm 2 mps 542 mmHg 20%
15:00 +21°C° 0 mm 2 mps 542 mmHg 21%
16:00 +21°C° 0 mm 2 mps 542 mmHg 22%
17:00 +21°C° 0 mm 2 mps 541 mmHg 22%
18:00 +19°C° 0.1 mm 2 mps 541 mmHg 30%
19:00 +17°C° 0.1 mm 2 mps 541 mmHg 38%
20:00 +15°C° 0.1 mm 2 mps 540 mmHg 45%
21:00 +14°C° 0.1 mm 2 mps 541 mmHg 47%
22:00 +13°C° 0.1 mm 3 mps 541 mmHg 49%
23:00 +12°C° 0.1 mm 3 mps 541 mmHg 51%

Day after tomorrow, 26 July, Monday

Time Temperature Precipitation Wind Pressure Humidity
00:00 +12°C° 0 mm 2 mps 541 mmHg 52%
01:00 +12°C° 0 mm 2 mps 540 mmHg 53%
02:00 +12°C° 0 mm 2 mps 540 mmHg 54%
03:00 +10°C° 0 mm 2 mps 540 mmHg 55%
04:00 +11°C° 0 mm 1 mps 539 mmHg 56%
05:00 +10°C° 0 mm 1 mps 539 mmHg 57%
06:00 +11°C° 0 mm 1 mps 540 mmHg 53%
07:00 +12°C° 0 mm 1 mps 540 mmHg 50%
08:00 +12°C° 0 mm 1 mps 541 mmHg 46%
09:00 +14°C° 0 mm 1 mps 542 mmHg 41%
10:00 +16°C° 0 mm 1 mps 542 mmHg 35%
11:00 +18°C° 0 mm 1 mps 543 mmHg 30%
12:00 +18°C° 0 mm 2 mps 543 mmHg 28%
13:00 +19°C° 0 mm 3 mps 542 mmHg 27%
14:00 +20°C° 0 mm 3 mps 542 mmHg 25%
15:00 +20°C° 0 mm 3 mps 542 mmHg 28%
16:00 +19°C° 0 mm 3 mps 541 mmHg 30%
17:00 +19°C° 0 mm 2 mps 541 mmHg 32%
18:00 +17°C° 0 mm 2 mps 541 mmHg 40%
19:00 +16°C° 0 mm 2 mps 541 mmHg 47%
20:00 +15°C° 0 mm 2 mps 541 mmHg 55%
21:00 +14°C° 0.1 mm 2 mps 541 mmHg 59%
22:00 +13°C° 0.1 mm 2 mps 541 mmHg 63%
23:00 +13°C° 0.1 mm 2 mps 541 mmHg 66%

27 July, Tuesday

Time Temperature Precipitation Wind Pressure Humidity
00:00 +12°C° 0.2 mm 1 mps 541 mmHg 70%
01:00 +12°C° 0.2 mm 1 mps 540 mmHg 74%
02:00 +11°C° 0.2 mm 1 mps 540 mmHg 78%
03:00 +11°C° 0 mm 1 mps 540 mmHg 80%
04:00 +9°C° 0 mm 2 mps 539 mmHg 82%
05:00 +9°C° 0 mm 2 mps 539 mmHg 84%
06:00 +9°C° 0 mm 2 mps 539 mmHg 83%
07:00 +9°C° 0 mm 2 mps 540 mmHg 81%
08:00 +9°C° 0 mm 2 mps 540 mmHg 79%
09:00 +12°C° 0 mm 2 mps 541 mmHg 71%
10:00 +12°C° 0 mm 3 mps 541 mmHg 63%
11:00 +14°C° 0 mm 3 mps 542 mmHg 55%
12:00 +15°C° 0 mm 4 mps 542 mmHg 49%
13:00 +18°C° 0 mm 4 mps 541 mmHg 42%
14:00 +19°C° 0 mm 5 mps 541 mmHg 36%
15:00 +19°C° 0 mm 5 mps 541 mmHg 39%
16:00 +17°C° 0 mm 5 mps 540 mmHg 43%
17:00 +16°C° 0 mm 5 mps 540 mmHg 46%
18:00 +15°C° 0 mm 4 mps 540 mmHg 53%
19:00 +14°C° 0 mm 3 mps 540 mmHg 61%
20:00 +13°C° 0 mm 2 mps 540 mmHg 68%
21:00 +13°C° 0 mm 2 mps 540 mmHg 72%
22:00 +12°C° 0 mm 2 mps 540 mmHg 75%
23:00 +12°C° 0 mm 2 mps 540 mmHg 78%

28 July, Wednesday

Time Temperature Precipitation Wind Pressure Humidity
00:00 +10°C° 0 mm 2 mps 540 mmHg 80%
01:00 +10°C° 0 mm 2 mps 539 mmHg 82%
02:00 +9°C° 0 mm 2 mps 539 mmHg 83%
03:00 +9°C° 0 mm 2 mps 539 mmHg 84%
04:00 +8°C° 0 mm 2 mps 539 mmHg 85%
05:00 +8°C° 0 mm 2 mps 538 mmHg 85%
06:00 +7°C° 0 mm 2 mps 538 mmHg 85%
07:00 +7°C° 0 mm 2 mps 539 mmHg 84%
08:00 +7°C° 0 mm 2 mps 539 mmHg 83%
09:00 +7°C° 0 mm 2 mps 539 mmHg 79%
10:00 +8°C° 0 mm 2 mps 540 mmHg 75%
11:00 +8°C° 0 mm 3 mps 540 mmHg 70%
12:00 +8°C° 0 mm 3 mps 539 mmHg 70%
13:00 +8°C° 0 mm 3 mps 539 mmHg 70%
14:00 +9°C° 0 mm 3 mps 538 mmHg 69%
15:00 +8°C° 0 mm 3 mps 538 mmHg 71%
16:00 +8°C° 0 mm 3 mps 538 mmHg 73%
17:00 +7°C° 0 mm 2 mps 538 mmHg 74%
18:00 +6°C° 0.3 mm 2 mps 538 mmHg 77%
19:00 +5°C° 0.3 mm 2 mps 538 mmHg 80%
20:00 +5°C° 0.3 mm 2 mps 538 mmHg 82%
21:00 +4°C° 0 mm 2 mps 539 mmHg 82%
22:00 +4°C° 0 mm 2 mps 539 mmHg 82%
23:00 +4°C° 0 mm 2 mps 539 mmHg 83%

29 July, Thursday

Time Temperature Precipitation Wind Pressure Humidity
00:00 +4°C° 0 mm 1 mps 539 mmHg 83%
01:00 +4°C° 0 mm 1 mps 538 mmHg 83%
02:00 +4°C° 0 mm 1 mps 538 mmHg 84%
03:00 +4°C° 0 mm 1 mps 538 mmHg 84%
04:00 +3°C° 0 mm 1 mps 538 mmHg 84%
05:00 +3°C° 0 mm 1 mps 537 mmHg 84%
06:00 +3°C° 0 mm 1 mps 538 mmHg 82%
07:00 +3°C° 0 mm 1 mps 538 mmHg 81%
08:00 +4°C° 0 mm 1 mps 539 mmHg 79%
09:00 +4°C° 0 mm 2 mps 539 mmHg 74%
10:00 +5°C° 0 mm 2 mps 540 mmHg 69%
11:00 +6°C° 0 mm 2 mps 540 mmHg 64%
12:00 +7°C° 0 mm 3 mps 540 mmHg 61%
13:00 +8°C° 0 mm 3 mps 540 mmHg 57%
14:00 +10°C° 0 mm 3 mps 539 mmHg 54%
15:00 +9°C° 0 mm 3 mps 539 mmHg 54%
16:00 +9°C° 0 mm 3 mps 539 mmHg 55%
17:00 +9°C° 0 mm 3 mps 538 mmHg 55%
18:00 +8°C° 0 mm 3 mps 538 mmHg 59%
19:00 +7°C° 0 mm 2 mps 538 mmHg 62%
20:00 +6°C° 0 mm 2 mps 539 mmHg 65%
21:00 +7°C° 0 mm 1 mps 539 mmHg 66%
22:00 +6°C° 0 mm 1 mps 539 mmHg 67%
23:00 +6°C° 0 mm 1 mps 539 mmHg 68%
Show more

We Need Your Consent

Meteoprog and our Service Providers may store and access personal data such as cookies, device identifiers or other similar technologies on your device and process such data to personalise content and ads, as well as provide social media features and to analyse the traffic.

  • Store and/or access information on your device

    Cookies, device identifiers or other information can be stored or accessed on your device for the purposes indicated above.

  • Personalised ads and content, ad and content measurement, audience insights, and products development

    Ads and content can be personalised based on a profile. More data can be added to better personalise ads and content. Ad and content performance can be measured. Insights about the audience who saw the ads and content can be derived. Such data can be used to develop or improve user’s experience, systems and software.

By clicking ‘I Agree’ you will allow the use of indicated cookies, device identifiers, web beacons or other similar technologies. Your settings can be changed in the browser on your device.

For certain purposes, legitimate interests may be relied on, rather than consent. You can read more about this in our Privacy and Cookie Policy.